Location: Chiroubles
(46.1812°N, 4.6660°E)
Time: 18:59:35
(UTC+00:00)

Meteor 1-23 Rocket - Pass Details

Date: 15 August 2020
Orbit: 836 x 889 km, 81.3° (Epoch: 24 September)

Event Time Altitude Azimuth Distance (km) Brightness Sun altitude
Rises 21:48:13 0° 350° (N) 3,509 8.5 -24.6°
Reaches altitude 10° 21:50:42 10° 352° (N) 2,563 7.6 -24.8°
Maximum altitude 21:56:33 74° 78° (ENE) 920 4.2 -25.3°
Enters shadow 21:57:17 65° 130° (SE) 966 4.2 -25.4°
